www.pogodaiklimat.ru

Погода и климат >> Архив погоды >> Доминиканская Республика >> Sabana De La Mar


ПОГОДА в Sabana De La Mar

  • Прогноз погоды в Sabana De La Mar
  • Монитор погоды в Sabana De La Mar
  • Климат города

АРХИВ ПОГОДЫ в Sabana De La Mar

Время (UTC), дата Ветер
(напр.,м/с)
 
Видим.   Явления Облачность Т
(С)
Тd
(С)
f
(%)
Тe
(С)
Тes
(С)
Комфортность P
(гПа)
Po
(гПа)
Тmin
(С)
Tmax
(С)
R
(мм)
R24
(мм)
S
(см)
12 14.05 Ю 2 16 км 5/1 300 м
[Cu med, cong Ac trans]
+24.8 +22.0 84 +32 +35 очень
душно
1016.6 1017.0 +16.5 +29.5 28
15 14.05 В 2 16 км 6/3 540 м
[Cu med, cong Ac trans]
+27.8 +24.0 80 +39 +48 очень
душно
1017.3 1017.0
18 14.05 В 5 16 км 5/3 600 м
[Cb cap Ac trans]
+29.6 +24.7 75 +42 +48 опасность
перегрева
1015.5 1016.0 +16.5 +30.0
21 14.05 СВ 2 10 км слабый дождь 10/10 450 м
[Cu Sc]
+22.8 +22.5 98 +31 +31 очень
душно
1014.3 1014.0 53
00 15.05 Ю 1 10 км {дождь} 10/10 450 м
[Sc]
+15.3 +23.1 100 +16.5 +30.0 21
12 15.05 штиль 0 16 км 10/8 300 м
[Cb cap As op]
+23.0 +22.4 96 +31 +32 очень
душно
1017.1 1017.0 +18.0 +30.0 8
15 15.05 В 3 10 км осадки на расстоянии 8/6 450 м
[Cb cap Ci fib]
+27.8 +23.4 77 +38 +43 очень
душно
1017.9 1018.0
18 15.05 В 3 16 км {ливн. осадки} 9/9 450 м
[Cb cap]
+26.8 +23.8 84 +37 +38 очень
душно
1016.1 1016.0 +18.0 +28.6 7
21 15.05 В 5 16 км 9/3 450 м
[Cb cap Cs]
+27.2 +23.3 79 +37 +38 очень
душно
1014.7 1015.0
00 16.05 В 4 16 км 1/1 540 м
[Cu med, cong]
+25.8 +23.3 86 +35 +35 очень
душно
1014.4 1014.0 +18.0 +28.6
12 16.05 штиль 0 16 км 8/8 540 м
[Cu med, cong]
+22.8 +21.1 90 +30 +31 очень
душно
1016.2 1016.0 +15.0 +28.6
15 16.05 штиль 0 16 км в посл. час ливневой дождь 9/9 540 м
[Cu med, cong]
+25.2 +22.1 83 +33 +35 очень
душно
1017.1 1017.0 0.5
18 16.05 В 6 16 км {ливн. осадки} 6/3 540 м
[Cb cap Ci fib]
+28.8 +22.7 70 +38 +43 очень
душно
1015.7 1016.0 +15.0 +29.0
21 16.05 В 7 16 км 8/1 540 м
[Cu med, cong Ci fib]
+28.2 +23.0 73 +38 +39 очень
душно
1014.4 1014.0
00 17.05 В 6 16 км 6/1 540 м
[Cu med, cong Ci fib]
+26.3 +22.2 78 +34 +34 очень
душно
1015.1 1015.0 +15.0 +29.0
12 17.05 ЮВ 2 16 км 5/5 450 м
[Cu med, cong]
+24.4 +22.4 89 +32 +34 очень
душно
1015.8 1016.0 +16.5 +29.0 1
15 17.05 В 5 16 км в посл. час ливневой дождь 5/5 450 м
[Cu med, cong]
+27.2 +24.5 85 +38 +43 очень
душно
1016.5 1017.0 0.3
00 18.05 В 4 16 км 8/8 600 м
[Cu Sc]
+26.6 +22.7 79 +35 +35 очень
душно
1015.1 1015.0 +16.5 +29.5
12 18.05 штиль 0 16 км ливневой дождь, в посл. час гроза 9/4 450 м
[Cu med, cong Ci]
+24.4 +21.9 86 +31 +34 очень
душно
1015.6 1016.0 +16.7 +29.6 0.4
15 18.05 В 5 16 км 5/4 540 м
[Cu med, cong Ci fib]
+29.0 +22.6 68 +38 +44 очень
душно
1016.1 1016.0
18 18.05 В 5 16 км 5/3 540 м
[Cu med, cong Ci fib]
+29.4 +23.9 72 +40 +47 очень
душно
1014.9 1015.0 +16.7 +29.8
21 18.05 В 7 16 км 4/3 600 м
[Cu med, cong Ci fib]
+28.6 +22.8 71 +38 +39 очень
душно
1013.3 1013.0
00 19.05 ЮВ 4 16 км 5/5 540 м
[Cu med, cong]
+26.2 +20.8 72 +33 +33 очень
душно
1014.4 1014.0 +16.7 +29.8
12 19.05 В 3 16 км 1/1 300 м
[Cu med, cong]
+25.4 +22.0 81 +33 +36 очень
душно
1017.4 1017.0 +18.0 +29.8 1
15 19.05 В 5 16 км в посл. час ливневой дождь 6/6 540 м
[Cu med, cong]
+25.2 +23.6 91 +34 +38 очень
душно
1018.1 1018.0 2
18 19.05 В 7 16 км {ливн. осадки} 5/5 540 м
[Cu med, cong]
+29.2 +23.7 72 1016.7 1016.5 +18.0 +29.5
21 19.05 В 6 16 км 3/3 540 м
[Cb cap]
+28.0 +23.0 74 +37 +39 очень
душно
1015.2 1015.0
00 20.05 В 7 16 км 5/5 540 м
[Cu med, cong]
+26.6 +23.3 82 +36 +36 очень
душно
1015.9 1016.0 +18.0 +29.5
12 20.05 ЮВ 4 16 км 9/9 300 м
[Cu Sc]
+24.6 +22.6 89 +32 +33 очень
душно
1016.7 1017.0 +17.6 +29.5 6
15 20.05 В 6 16 км {ливн. осадки} 8/8 450 м
[Cu Sc]
+27.8 +23.4 77 +38 +39 очень
душно
1017.5 1018.0 1
18 20.05 В 6 16 км {ливн. осадки} 6/5 600 м
[Cu med, cong Ac trans]
+28.0 +23.9 78 +39 +42 очень
душно
1016.8 1017.0 +17.6 +29.0 1
21 20.05 В 6 16 км 6/4 600 м
[Cu med, cong Ac trans]
+27.6 +22.6 74 +36 +37 очень
душно
1015.4 1015.0
00 21.05 В 5 16 км 5/5 600 м
[Cu med, cong]
+26.2 +22.0 78 +34 +34 очень
душно
1016.3 1016.0 +17.6 +29.0

 

Местоположение метеостанции Sabana De La Mar (Доминиканская Республика): широта 19.05 долгота -69.38 высота над уровнем моря 10 м.

В архиве по умолчанию представлена погода в Sabana De La Mar за последнюю неделю. Архивные данные за месяц целиком и за предыдущие месяцы, начиная с января 2011 года, Вы можете получить, выбрав интересующий диапазон дат из раскрывающегося списка и нажав кнопку "Ввод!".


*Определитесь, кто Вы:
робот инопланетянин человек

Внимание! Время в таблицах - всемирное. Для получения местного времени необходимо прибавить поправку, которая в Sabana De La Mar равна -4 ч.

Смотрите также архив погоды в соседних городах и на ближайших метеорологических станциях:

Погода в Las Americas (Доминиканская Республика) (75 км)
Погода в La Romana Int Airport (Доминиканская Республика) (82 км)
Погода в Santo Domingo (Доминиканская Республика) (87 км)
Погода в Punta Cana (Доминиканская Республика) (120 км)
Погода в Puerto Plata (Доминиканская Республика) (145 км)
Погода в Santiago (Доминиканская Республика) (146 км)
Погода в Barahona (Доминиканская Республика) (204 км)
Погода в Charlotte Amalie St. Thomas (Виргинские Острова) (472 км)
Погода в Punta de Maisi (Куба) (517 км)
Погода в Juliana Airport (Нидерландские Антилы) (671 км)

Пояснения к столбцам:

Ветер - указаны скорость ветра в м/с - средняя за 10 мин, порывы в срок и между сроками (в фигурных скобках) и направление, откуда дует ветер: С - северный, СВ - северо-восточный, В - восточный, ЮВ - юго-восточный, Ю - южный, ЮЗ - юго-западный, З - западный, СЗ - северо-западный.
Видимость - горизонтальная дальность видимости в метрах или километрах. При видимости от 1 до 10 км при отсутствии осадков обычно наблюдается дымка, при ухудшении видимости до 1 км и менее - туман. В сухую погоду видимость может ухудшаться дымом, пылью или мглою.
Явления - указаны атмосферные явления, наблюдавшиеся в срок или в последний час перед сроком; фигурными скобками обозначены явления, наблюдавшиеся между сроками (за 1-3 часа до срока); квадратными скобками обозначены град или гололедные отложения с указанием их диаметра в мм.
Облачность - указаны через наклонную черту общая и нижняя облачность в баллах и высота нижней границы облаков в метрах; квадратными скобками обозначены формы облаков: Ci - перистые, Cs - перисто-слоистые, Cc - перисто-кучевые, Ac - высококучевые, As - высокослоистые, Sc - слоисто-кучевые, Ns - слоисто-дождевые, Cu - кучевые, Cb - кучево-дождевые. Подробнее классификацию облаков см. в Атласе облаков (PDF).
T - Температура воздуха - температура, измеренная на высоте 2 м над землей.
Td - Температура точки росы - температура, при понижении до которой содержащийся в воздухе водяной пар достигнет насыщения.
f - Относительная влажность воздуха - влажноcть воздуха, измеренная на высоте 2 м над землей.
Te - Эффективная температура - температура, которую ощущает одетый по сезону человек в тени. Характеристика душности погоды. При расчете учитывается влияние влажности воздуха и скорости ветра на теплоощущения человека.
Tes - Эффективная температура на солнце - температура, которую ощущает человек, с поправкой на солнечный нагрев. Характеристика знойности погоды. Зависит от высоты солнца над горизонтом, облачности и скорости ветра. Ночью, в пасмурную погоду, а также при ветре 12 м/с и более поправка равна нулю.
P - Атмосферное давление - приведенное к уровню моря атмосферное давление.
Po - Атмосферное давление - измеренное на уровне метеостанции атмосферное давление.
Tmin - Минимальная температура - минимум температуры воздуха на высоте 2 м над землей.
Tmax - Максимальная температура - максимум температуры воздуха на высоте 2 м над землей.
R - Количество осадков - Количество выпавших осадков за период времени, мм. При наведении курсора мыши на число - период времени, за который выпало указанное количество осадков.
R24 - Количество осадков - Количество выпавших осадков за 24 часа, мм.
S - Снежный покров - Высота снежного покрова, см. При наведении курсора мыши на число - состояние снежного покрова и степень покрытия местности в баллах.